Таш-Кумыр

Киргизия     41°20′39″N   72°13′10″E
В апреле 2022 года жителям России запретили посещать сайт meteo.paraplan.net по решению Генеральной прокуратуры. Аудитория сайта уменьшилась в 10 раз. Владельцы сайта не видят смысла в поддержке погодного сервера в таких условиях. Сайт будет закрыт в октябре.
темп.,
°C
ветер,
м/с
пор.,
м/с
влажн.,
%
обл.,
%
осадки,
мм/ч
давл.,
гПа
погр.,
м
26 сентября, пн
пн2600:00+20всв33230 0.0 101417
03:00+19св22250 0.0 101413
06:00+18св22260 0.0 101513
09:00+23всв01180 0.0 1016236
12:00+28ююз32130 0.0 10151489
15:00+30зюз43100 0.0 10122465
18:00+29юз34110 0.0 1012711
21:00+21всв33170 0.0 101514
27 сентября, вт
вт2700:00+20в33170 0.0 101514
03:00+18в33200 0.0 101536
06:00+16в33240 0.0 101636
09:00+21юв35200 0.0 1017543
12:00+26ююв65190 0.0 10151327
15:00+28ю54150 0.0 10121575
18:00+26юз34140 0.0 1012907
21:00+19в22230 0.0 101412
28 сентября, ср
ср2800:00+17в22300 0.0 101412
03:00+15в22320 0.0 101412
06:00+14в22330 0.0 101413
09:00+20ююв23210 0.0 1015680
12:00+23юз33185 0.0 10131132
15:00+25юз331695 0.0 10101586
18:00+24юз3417100 0.0 1010321
21:00+19в222471 0.0 101213
29 сентября, чт
чт2900:00+16в22300 0.0 101313
03:00+15всв32313 0.0 101314
06:00+14всв223224 0.0 101211
09:00+19ссв012194 0.0 1013167
12:00+24юз331523 0.0 10111206
15:00+25юз4314100 0.0 10091409
18:00+23ююз1117100 0.0 100920
21:00+18всв322190 0.0 101114
30 сентября, пт
пт3000:00+18св3321100 0.0 101122
03:00+17св2220100 0.0 101014
06:00+16св2222100 0.0 101014
09:00+20юв1218100 0.0 1012216
12:00+23ю4415100 0.0 10111153
15:00+26ю441299 0.0 10091755
18:00+24ююз3314100 0.0 1009142
21:00+19юв3320100 0.0 101249